Vancouver, British Columbia

2:39 PM PST on January 19, 2018 (GMT -0800)
Vancouver International Airport

Weather History for CYVR - December, 2012

Change the Weather History Date:

Sunday, December 9, 2012

  Actual Average Record
Temperature  
Mean Temperature 36 °F -  
Max Temperature 39 °F 43 °F 59 °F (2014)
Min Temperature 34 °F 33 °F 22 °F (2013)
Degree Days  
Heating Degree Days 28    
Moisture  
Dew Point 35 °F    
Average Humidity 89    
Maximum Humidity 100    
Minimum Humidity 81    
Precipitation  
Precipitation 0.08 in 0.22 in - ()
Sea Level Pressure  
Sea Level Pressure 30.36 in    
Wind  
Wind Speed 6 mph ()    
Max Wind Speed 13 mph    
Max Gust Speed -    
Visibility 10.2 miles    
Events Rain    
Averages and records for this station are not official NWS values.
T = Trace of Precipitation, MM = Missing Value Source: Averaged Metar Reports

Daily Weather History Graph

Daily Weather History Graph

Search for Another Location

Airport or City:

Trip Planner

Search our weather history database for the weather conditions in past years. The results will help you decide how hot, cold, wet, or windy it might be!

Date:

Astronomy

Dec. 09, 2012 Rise Set
Actual Time 7:56 AM PST 4:14 PM PST
Civil Twilight 7:18 AM PST 4:51 PM PST
Nautical Twilight 6:38 AM PST 5:32 PM PST
Astronomical Twilight 5:59 AM PST 6:10 PM PST
Moon 3:19 AM PST (12/9) 1:39 PM PST (12/9)
Length of Visible Light 9h 32m
Length of Day
8h 18m
Waning Crescent, 17% of the Moon is Illuminated
Dec 9
Waning Crescent
Dec 13
New
Dec 19
First Quarter
Dec 28
Full
Jan 4
Last Quarter

Hourly Weather History & Observations

Time (PST) Temp. Windchill Dew Point Humidity Pressure Visibility Wind Dir Wind Speed Gust Speed Precip Events Conditions
12:00 AM 35.6 °F 30.7 °F 32.0 °F 87% 30.37 in 20.0 mi ESE 5.8 mph - N/A   Overcast
1:00 AM 35.6 °F 29.9 °F 32.0 °F 87% 30.38 in 20.0 mi East 6.9 mph - N/A   Overcast
2:00 AM 35.6 °F 29.9 °F 32.0 °F 87% 30.37 in 20.0 mi East 6.9 mph - N/A   Overcast
3:00 AM 37.4 °F 32.8 °F 32.0 °F 81% 30.38 in 20.0 mi East 5.8 mph - N/A   Overcast
4:00 AM 36 °F - 33 °F 83% 30.37 in 19 mi East 6.9 mph - -   Overcast
4:00 AM 37.4 °F 32.1 °F 32.0 °F 81% 30.37 in 20.0 mi East 6.9 mph - N/A   Overcast
4:20 AM 37.4 °F 33.8 °F - N/A% - 15.0 mi East 4.6 mph - N/A Rain Light Rain Showers
5:00 AM 35.6 °F 30.7 °F 32.0 °F 87% 30.39 in 15.0 mi ENE 5.8 mph - N/A Rain Light Rain Showers
6:00 AM 37.4 °F 31.4 °F 32.0 °F 81% 30.38 in 12.0 mi ENE 8.1 mph - N/A Rain Light Rain Showers
7:00 AM 37.4 °F 31.4 °F 32.0 °F 81% 30.38 in 10.0 mi ENE 8.1 mph - N/A Rain Light Rain
8:00 AM 35.6 °F 28.6 °F 32.0 °F 87% 30.37 in 8.0 mi ENE 9.2 mph - N/A Rain Light Rain
9:00 AM 35.6 °F 27.5 °F 33.8 °F 93% 30.36 in 8.0 mi NE 11.5 mph - N/A Rain Light Rain
10:00 AM 36 °F - 34 °F 88% 30.37 in 4 mi NE 10.4 mph - - Rain Light Rain
10:00 AM 37.4 °F 30.8 °F 33.8 °F 87% 30.37 in 4.0 mi NE 9.2 mph - N/A Rain Light Rain
10:21 AM 37.4 °F 31.4 °F - N/A% - 3.0 mi NE 8.1 mph - N/A Rain Light Rain
11:00 AM 37.4 °F 31.4 °F 33.8 °F 87% 30.36 in 6.0 mi East 8.1 mph - N/A Rain Light Rain
12:00 PM 37.4 °F 31.4 °F 35.6 °F 93% 30.35 in 3.0 mi ENE 8.1 mph - N/A Rain Light Rain
1:00 PM 37.4 °F 32.1 °F 35.6 °F 93% 30.34 in 3.0 mi East 6.9 mph - N/A Rain Light Rain
1:19 PM 37.4 °F 30.3 °F - N/A% - 4.0 mi East 10.4 mph - N/A Rain Light Rain
2:00 PM 39.2 °F 33.6 °F 37.4 °F 93% 30.33 in 3.0 mi East 8.1 mph - N/A Rain Light Rain
2:12 PM 37.4 °F 32.1 °F - N/A% - 3.0 mi ENE 6.9 mph - N/A Rain Light Rain
3:00 PM 37.4 °F 33.8 °F 37.4 °F 100% 30.34 in 3.0 mi NE 4.6 mph - N/A Rain Light Rain
4:00 PM 38 °F - 37 °F 95% 30.34 in 6 mi Calm Calm - - Rain Light Rain
4:00 PM 39.2 °F - 37.4 °F 93% 30.34 in 6.0 mi Calm Calm - N/A Rain Light Rain
4:42 PM 39.2 °F - - N/A% - 6.0 mi Calm Calm - N/A   Overcast
5:00 PM 39.2 °F - 35.6 °F 87% 30.34 in 8.0 mi Calm Calm - N/A   Overcast
5:25 PM 39.2 °F - - N/A% - 8.0 mi Calm Calm - N/A   Overcast
6:00 PM 39.2 °F - 37.4 °F 93% 30.32 in 8.0 mi WSW 2.3 mph - N/A   Overcast
6:48 PM 39.2 °F 34.2 °F - N/A% - 10.0 mi West 6.9 mph - N/A   Overcast
7:00 PM 39.2 °F 33.6 °F 37.4 °F 93% 30.34 in 10.0 mi West 8.1 mph - N/A   Overcast
8:00 PM 39.2 °F 33.0 °F 37.4 °F 93% 30.35 in 12.0 mi WNW 9.2 mph - N/A   Overcast
9:00 PM 39.2 °F 33.0 °F 35.6 °F 87% 30.36 in 12.0 mi WNW 9.2 mph - N/A   Overcast
9:41 PM 39.2 °F 33.0 °F - N/A% - 15.0 mi West 9.2 mph - N/A   Overcast
10:00 PM 40 °F - 36 °F 82% 30.35 in 15 mi WNW 12.7 mph - -   Partly Cloudy
10:00 PM 39.2 °F 31.6 °F 35.6 °F 87% 30.35 in 15.0 mi WNW 12.7 mph - N/A   Overcast
11:00 PM 39.2 °F 33.0 °F 37.4 °F 93% 30.35 in 15.0 mi WNW 9.2 mph - N/A   Overcast